Regional Weather Roundup
Issued by NWS Mobile, AL

Home | Current Version | Previous Version | Text Only | Print | Product List | Glossary On
Versions: 1 2 3 4 5 6 7 8 9 10 11 12 13 14 15 16 17 18 19 20 21 22 23 24 25 26 27
000
ASUS44 KMOB 250112
RWRMOB
REGIONAL WEATHER ROUNDUP
NATIONAL WEATHER SERVICE MOBILE AL
800 PM CDT MON APR 24 2017

NOTE: "FAIR" INDICATES FEW OR NO CLOUDS BELOW 12,000 FEET WITH NO
      SIGNIFICANT WEATHER AND/OR OBSTRUCTIONS TO VISIBILITY.

  * THESE STATIONS ARE PART OF THE UNIVERSITY OF SOUTH ALABAMA
    MESONET AND ARE NOT UNDER NWS OR FAA QUALITY CONTROL.

ALZ061>064-250200-
COASTAL ALABAMA

CITY           SKY/WX    TMP DP  RH WIND       PRES   REMARKS
MOBILE REG APT PTCLDY    65  53  65 NE6       29.81R
BROOKLEY FIELD CLEAR     68  55  63 N9        29.81R
USA CAMPUS*      N/A     63  55  77 CALM      29.81R
DOG RIVER*       N/A     66  55  68 NE2       30.49


CITY           SKY/WX    TMP DP  RH WIND       PRES   REMARKS
GULF SHORES    CLEAR     64  55  74 W6        29.80R

$$

ALZ051>060-250200-
INTERIOR SOUTHWEST AND SOUTH CENTRAL ALABAMA

CITY           SKY/WX    TMP DP  RH WIND       PRES   REMARKS
GREENVILLE     CLEAR     64  52  64 CALM      29.76R
EVERGREEN      CLEAR     61  53  75 W5        29.79R
ATMORE*          N/A     61  54  77 W5        29.82R
ANDALUSIA/OPP  CLEAR     64  53  67 CALM      29.77R
ANDALUSIA*       N/A     61  54  77 W3        29.77R
FLORALA APT    PTCLDY    59  53  80 CALM      29.79R
FLORALA*         N/A     57  54  88 CALM      30.43R

$$

FLZ001>006-250200-
WESTERN FLORIDA PANHANDLE

CITY           SKY/WX    TMP DP  RH WIND       PRES   REMARKS
PENSACOLA      CLEAR     64  51  62 NW5       29.80R
NAS PENSACOLA  PTCLDY    62  51  67 N3        29.80R
MILTON         PTCLDY    58  53  84 W6        29.80R
WHTNG S FIELD  PTCLDY    62  54  74 CALM      29.80R


CITY           SKY/WX    TMP DP  RH WIND       PRES   REMARKS
JAY*             N/A     59  52  77 SW3       29.80S
DUKE FIELD     PTCLDY    62  51  66 W5        29.78R
CRESTVIEW      CLEAR     62  52  69 W3        29.80R
VALPARAISO     PTCLDY    62  51  67 W7        29.79R
DESTIN         CLEAR     67  55  65 W3        29.79R

$$

MSZ076-079-250200-
INTERIOR SOUTHEAST MISSISSIPPI

CITY           SKY/WX    TMP DP  RH WIND       PRES   REMARKS
LEAKESVILLE*   NOT AVBL
AGRICOLA*        N/A     66  55  68 CALM      29.79

$$

MARINE OBSERVATIONS

STATION/POSITION TIME  TEMP    WIND        PRES    WAVE
                       AIR SEA DIR/SP/G            HT/PER
                 (UTC) (F)     (DEG/KT/KT) (MB)    (FT/S)
PASCAGOULA       0042   71     350/  6/  7 1008.5R
PETIT BOIS ISLND 0042   68     110/  7/  9 1009.4R
GRAND BAY        2345   73     350/  6     1009.0S
KATRINA CUT      0030   70      70/ 12     1008.5F
CEDAR POINT      0030   70      50/ 10     1008.5R
E DAUPHIN ISLAND 0000   69      30/ 11/ 13 1008.6R
MIDDLE BAY LIGHT 0030   69      20/ 14     1008.5F
USCG MOBILE BAY  0042   67 75   20/  7/  8 1009.7R
STATE DOCKS      0042   67 75              1009.0R
MEAHER PARK      0030   67      20/  4     1008.8R
FORT MORGAN      0042   69      50/ 10/ 12   N/A
12 S ORANGE BCH  2350   69 74   10/  6/ 10 1008.3S   1/ 3
PENSACOLA BAY    0042   66 75  340/  3/  7 1009.4R
64 S DAUPHIN ISL 0050   71 74  270/ 12/ 16 1009.1F   3/ 5
67 S FORT MORGAN 0030   70     320/  2     1009.1S

$$

SELECTED LOCATIONS ACROSS THE REGION

CITY           SKY/WX    TMP DP  RH WIND       PRES   REMARKS
NEW ORLEANS    PTCLDY    67  54  63 W3        29.80R
GULFPORT       CLEAR     72  54  53 NE3       29.78R
PASCAGOULA AP  CLEAR     63  55  75 NE3       29.79R
PASCAGOULA*    NOT AVBL
HATTIESBURG    CLEAR     66  56  70 CALM      29.80R
LAUREL         CLEAR     63  55  77 CALM      29.80S
MERIDIAN       CLEAR     62  58  86 S3        29.79R
JACKSON        CLEAR     63  56  78 CALM      29.78S
MONTGOMERY     PTCLDY    66  52  60 W6        29.76R
TROY           MOCLDY    63  56  78 CALM      29.77R
ASHFORD*         N/A     61  54  77 W3        29.77R
DOTHAN         MOCLDY    66  54  65 W5        29.79R
PANAMA CITY    CLEAR     62  53  72 CALM      29.77R

$$





USA.gov is the U.S. government's official web portal to all federal, state and local government web resources and services.